^^

..:: Storico WU ::..




Lo storico viene creato da WUnderground con i dati che la stazione Meteomincio invia al loro server. L' aggiornamento viene fatto ogni 5 minuti circa, tuttavia possono esserci intervalli pił ampi a causa di errori, interruzioni di servizio o problemi nell' invio tramite FTP.


Storico stazione MeteoMincio
Giorno Sommario per Febbario 19, 2022 Unità:  Inglese    Metrico   Entrambi
Giorno Settimana Mese Anno
  Max: Min: Media:
Temperatura: 55.4 °F 46.4 °F 49.3 °F
Dew Point: 50 °F 44.6 °F 47.1 °F
Umidità: 96% 86% 92%
Velocità vento: 5.6mph 0mph 2.7mph
Raffica: 8.1mph - -
Direzione- - SSW
Pressione: 30.1 in 29.9 in -
Precipitazioni: 0 in    
 
 
Tabulato Dati per Febbario 19, 2022
Ora Temperatura Dew Point Pressione Direzione Velocità vento Raffica Umidità Intensità pioggia (oraria) Info solare Situazione
00:04 46.4 °F 44.6 °F 30 in Calm     92% 0 in 0.00 W/m2 unknown
00:09 46.4 °F 44.6 °F 30 in SW 1.2 mph 2.5 mph 92% 0 in 0.00 W/m2 unknown
00:14 46.4 °F 44.6 °F 30 in SW 1.2 mph 2.5 mph 93% 0 in 0.00 W/m2 unknown
00:19 46.4 °F 44.6 °F 30 in WSW 1.9 mph 2.5 mph 93% 0 in 0.00 W/m2 unknown
00:24 46.4 °F 44.6 °F 30 in West 1.9 mph 2.5 mph 93% 0 in 0.00 W/m2 unknown
00:29 46.4 °F 44.6 °F 30 in West 1.9 mph 2.5 mph 93% 0 in 0.00 W/m2 unknown
00:34 46.4 °F 44.6 °F 30 in West 1.2 mph 2.5 mph 93% 0 in 0.00 W/m2 unknown
00:39 46.4 °F 44.6 °F 30 in SW 1.9 mph 2.5 mph 93% 0 in 0.00 W/m2 unknown
00:44 46.4 °F 44.6 °F 30 in SSW 3.1 mph 3.7 mph 93% 0 in 0.00 W/m2 unknown
00:49 46.4 °F 44.6 °F 30 in SW 3.1 mph 3.7 mph 93% 0 in 0.00 W/m2 unknown
00:54 46.4 °F 44.6 °F 30 in SW 2.5 mph 3.7 mph 93% 0 in 0.00 W/m2 unknown
00:59 46.4 °F 44.6 °F 30 in SW 1.9 mph 3.7 mph 93% 0 in 0.00 W/m2 unknown
01:04 46.4 °F 44.6 °F 30 in SW 2.5 mph 3.7 mph 93% 0 in 0.00 W/m2 unknown
01:09 46.4 °F 44.6 °F 30 in WSW 1.9 mph 3.7 mph 93% 0 in 0.00 W/m2 unknown
01:14 46.4 °F 44.6 °F 30 in WSW 1.9 mph 3.7 mph 93% 0 in 0.00 W/m2 unknown
01:19 46.4 °F 44.6 °F 30 in West 1.9 mph 3.1 mph 93% 0 in 0.00 W/m2 unknown
01:24 46.4 °F 44.6 °F 30 in WSW 2.5 mph 3.7 mph 93% 0 in 0.00 W/m2 unknown
01:29 46.4 °F 44.6 °F 30 in WSW 2.5 mph 3.7 mph 93% 0 in 0.00 W/m2 unknown
01:34 46.4 °F 44.6 °F 30 in WSW 2.5 mph 3.7 mph 93% 0 in 0.00 W/m2 unknown
01:39 46.4 °F 44.6 °F 30 in SW 2.5 mph 3.7 mph 93% 0 in 0.00 W/m2 unknown
01:44 46.4 °F 44.6 °F 30 in SW 2.5 mph 3.7 mph 93% 0 in 0.00 W/m2 unknown
01:49 46.4 °F 44.6 °F 30 in SW 3.7 mph 5 mph 93% 0 in 0.00 W/m2 unknown
01:54 46.4 °F 44.6 °F 30 in SW 3.7 mph 6.2 mph 93% 0 in 0.00 W/m2 unknown
01:59 46.4 °F 44.6 °F 30 in SW 3.7 mph 6.2 mph 93% 0 in 0.00 W/m2 unknown
02:04 46.4 °F 44.6 °F 30 in SW 3.1 mph 6.2 mph 92% 0 in 0.00 W/m2 unknown
02:09 46.4 °F 44.6 °F 30 in SW 3.1 mph 5 mph 92% 0 in 0.00 W/m2 unknown
02:14 46.4 °F 44.6 °F 30 in SW 2.5 mph 5 mph 92% 0 in 0.00 W/m2 unknown
02:19 46.4 °F 44.6 °F 30 in SW 2.5 mph 3.7 mph 92% 0 in 0.00 W/m2 unknown
02:24 46.4 °F 44.6 °F 30 in SW 3.1 mph 3.7 mph 92% 0 in 0.00 W/m2 unknown
02:29 46.4 °F 44.6 °F 30 in WSW 2.5 mph 3.7 mph 92% 0 in 0.00 W/m2 unknown
02:34 46.4 °F 44.6 °F 30 in SW 3.1 mph 3.7 mph 92% 0 in 0.00 W/m2 unknown
02:39 46.4 °F 44.6 °F 30 in WSW 3.1 mph 3.7 mph 92% 0 in 0.00 W/m2 unknown
02:44 46.4 °F 44.6 °F 30 in WSW 3.1 mph 4.3 mph 92% 0 in 0.00 W/m2 unknown
02:49 46.4 °F 44.6 °F 30 in WSW 2.5 mph 5 mph 92% 0 in 0.00 W/m2 unknown
02:54 46.4 °F 44.6 °F 30 in WSW 2.5 mph 3.7 mph 92% 0 in 0.00 W/m2 unknown
02:59 46.4 °F 44.6 °F 30 in West 3.1 mph 3.7 mph 93% 0 in 0.00 W/m2 unknown
03:04 46.4 °F 44.6 °F 29.9 in West 3.1 mph 3.7 mph 93% 0 in 0.00 W/m2 unknown
03:09 46.4 °F 44.6 °F 29.9 in WSW 1.9 mph 3.7 mph 93% 0 in 0.00 W/m2 unknown
03:14 46.4 °F 44.6 °F 29.9 in SW 2.5 mph 3.7 mph 93% 0 in 0.00 W/m2 unknown
03:19 46.4 °F 44.6 °F 29.9 in SW 2.5 mph 3.7 mph 93% 0 in 0.00 W/m2 unknown
03:24 46.4 °F 44.6 °F 29.9 in SW 2.5 mph 3.7 mph 93% 0 in 0.00 W/m2 unknown
03:29 46.4 °F 44.6 °F 29.9 in SW 2.5 mph 3.7 mph 93% 0 in 0.00 W/m2 unknown
03:34 46.4 °F 44.6 °F 29.9 in SSW 2.5 mph 3.7 mph 93% 0 in 0.00 W/m2 unknown
03:39 46.4 °F 44.6 °F 29.9 in SW 2.5 mph 3.7 mph 93% 0 in 0.00 W/m2 unknown
03:44 46.4 °F 44.6 °F 29.9 in SW 2.5 mph 3.7 mph 93% 0 in 0.00 W/m2 unknown
03:49 46.4 °F 44.6 °F 29.9 in SW 1.9 mph 3.7 mph 93% 0 in 0.00 W/m2 unknown
03:54 46.4 °F 44.6 °F 29.9 in WSW 2.5 mph 3.7 mph 93% 0 in 0.00 W/m2 unknown
03:59 46.4 °F 44.6 °F 29.9 in WSW 3.1 mph 3.7 mph 93% 0 in 0.00 W/m2 unknown
04:04 46.4 °F 44.6 °F 29.9 in WSW 3.1 mph 3.7 mph 93% 0 in 0.00 W/m2 unknown
04:09 46.4 °F 44.6 °F 29.9 in WSW 2.5 mph 3.7 mph 93% 0 in 0.00 W/m2 unknown
04:14 46.4 °F 44.6 °F 29.9 in SW 3.1 mph 3.7 mph 93% 0 in 0.00 W/m2 unknown
04:19 46.4 °F 44.6 °F 29.9 in SW 3.7 mph 5 mph 93% 0 in 0.00 W/m2 unknown
04:24 46.4 °F 44.6 °F 29.9 in SW 3.7 mph 5 mph 93% 0 in 0.00 W/m2 unknown
04:29 46.4 °F 44.6 °F 29.9 in WSW 3.1 mph 5 mph 93% 0 in 0.00 W/m2 unknown
04:34 46.4 °F 44.6 °F 29.9 in SW 3.7 mph 5 mph 93% 0 in 0.00 W/m2 unknown
04:39 46.4 °F 44.6 °F 29.9 in WSW 4.3 mph 5 mph 93% 0 in 0.00 W/m2 unknown
04:44 46.4 °F 44.6 °F 29.9 in SW 4.3 mph 6.2 mph 93% 0 in 0.00 W/m2 unknown
04:49 46.4 °F 44.6 °F 29.9 in SW 5 mph 6.2 mph 93% 0 in 0.00 W/m2 unknown
04:54 46.4 °F 44.6 °F 29.9 in WSW 5 mph 6.2 mph 93% 0 in 0.00 W/m2 unknown
04:59 46.4 °F 44.6 °F 29.9 in WSW 5 mph 6.2 mph 93% 0 in 0.00 W/m2 unknown
05:04 46.4 °F 44.6 °F 29.9 in WSW 3.7 mph 6.2 mph 93% 0 in 0.00 W/m2 unknown
05:09 46.4 °F 44.6 °F 29.9 in WSW 3.7 mph 5 mph 93% 0 in 0.00 W/m2 unknown
05:14 46.4 °F 44.6 °F 29.9 in WSW 3.7 mph 5 mph 93% 0 in 0.00 W/m2 unknown
05:19 46.4 °F 44.6 °F 29.9 in WSW 3.1 mph 4.3 mph 93% 0 in 0.00 W/m2 unknown
05:24 46.4 °F 44.6 °F 29.9 in WSW 3.7 mph 5 mph 94% 0 in 0.00 W/m2 unknown
05:29 46.4 °F 44.6 °F 29.9 in WSW 3.7 mph 5 mph 94% 0 in 0.00 W/m2 unknown
05:34 46.4 °F 44.6 °F 29.9 in West 3.7 mph 5 mph 94% 0 in 0.00 W/m2 unknown
05:39 46.4 °F 44.6 °F 29.9 in WSW 3.1 mph 5 mph 94% 0 in 0.00 W/m2 unknown
05:44 46.4 °F 44.6 °F 29.9 in WSW 3.1 mph 3.7 mph 94% 0 in 0.00 W/m2 unknown
05:49 46.4 °F 44.6 °F 29.9 in SW 3.1 mph 3.7 mph 94% 0 in 0.00 W/m2 unknown
05:54 46.4 °F 44.6 °F 29.9 in SW 3.1 mph 3.7 mph 94% 0 in 0.00 W/m2 unknown
05:59 46.4 °F 44.6 °F 29.9 in SW 3.7 mph 5 mph 94% 0 in 0.00 W/m2 unknown
06:04 46.4 °F 44.6 °F 29.9 in SW 2.5 mph 5 mph 94% 0 in 0.00 W/m2 unknown
06:09 46.4 °F 44.6 °F 29.9 in SSW 3.1 mph 3.7 mph 94% 0 in 0.00 W/m2 unknown
06:14 46.4 °F 44.6 °F 29.9 in SW 3.7 mph 5 mph 94% 0 in 0.00 W/m2 unknown
06:19 46.4 °F 44.6 °F 29.9 in WSW 2.5 mph 3.7 mph 94% 0 in 0.00 W/m2 unknown
06:24 46.4 °F 44.6 °F 29.9 in West 2.5 mph 3.7 mph 94% 0 in 0.00 W/m2 unknown
06:29 46.4 °F 44.6 °F 29.9 in West 3.1 mph 3.7 mph 94% 0 in 0.00 W/m2 unknown
06:34 46.4 °F 44.6 °F 30 in West 3.1 mph 3.7 mph 94% 0 in 0.00 W/m2 unknown
06:39 46.4 °F 44.6 °F 30 in West 3.1 mph 3.7 mph 94% 0 in 0.00 W/m2 unknown
06:44 46.4 °F 44.6 °F 30 in WSW 3.1 mph 3.7 mph 94% 0 in 0.00 W/m2 unknown
06:49 46.4 °F 44.6 °F 30 in West 3.1 mph 3.7 mph 95% 0 in 0.00 W/m2 unknown
06:54 46.4 °F 44.6 °F 30 in West 3.1 mph 3.7 mph 95% 0 in 0.00 W/m2 unknown
06:59 46.4 °F 44.6 °F 30 in WSW 2.5 mph 3.7 mph 95% 0 in 0.00 W/m2 unknown
07:04 46.4 °F 44.6 °F 30 in West 3.7 mph 5 mph 95% 0 in 0.00 W/m2 unknown
07:09 46.4 °F 44.6 °F 30 in WSW 3.1 mph 5 mph 95% 0 in 0.00 W/m2 unknown
07:14 46.4 °F 44.6 °F 30 in WSW 3.1 mph 3.7 mph 95% 0 in 0.00 W/m2 unknown
07:19 46.4 °F 44.6 °F 30 in SW 3.7 mph 5 mph 95% 0 in 0.00 W/m2 unknown
07:24 46.4 °F 44.6 °F 30 in WSW 3.7 mph 5 mph 95% 0 in 0.00 W/m2 unknown
07:29 46.4 °F 44.6 °F 30 in WSW 3.1 mph 5 mph 95% 0 in 0.00 W/m2 unknown
07:34 46.4 °F 44.6 °F 30 in WSW 3.1 mph 5 mph 95% 0 in 0.00 W/m2 unknown
07:39 46.4 °F 44.6 °F 30 in SW 3.7 mph 5 mph 95% 0 in 5.00 W/m2 unknown
07:44 46.4 °F 44.6 °F 30 in WSW 3.7 mph 3.7 mph 95% 0 in 7.00 W/m2 unknown
07:49 46.4 °F 44.6 °F 30 in WSW 3.1 mph 3.7 mph 96% 0 in 9.00 W/m2 unknown
07:54 46.4 °F 44.6 °F 30 in West 2.5 mph 3.7 mph 96% 0 in 11.00 W/m2 unknown
07:59 46.4 °F 44.6 °F 30 in WSW 3.1 mph 3.7 mph 96% 0 in 11.00 W/m2 unknown
08:04 46.4 °F 44.6 °F 30 in WSW 3.1 mph 3.7 mph 96% 0 in 12.00 W/m2 unknown
08:09 46.4 °F 44.6 °F 30 in WSW 3.1 mph 3.7 mph 96% 0 in 12.00 W/m2 unknown
08:14 46.4 °F 44.6 °F 30 in WSW 3.7 mph 3.7 mph 96% 0 in 12.00 W/m2 unknown
08:19 46.4 °F 44.6 °F 30 in WSW 3.1 mph 3.7 mph 96% 0 in 14.00 W/m2 unknown
08:24 46.4 °F 44.6 °F 30 in West 3.1 mph 3.7 mph 96% 0 in 23.00 W/m2 unknown
08:29 46.4 °F 44.6 °F 30 in West 3.1 mph 3.7 mph 96% 0 in 26.00 W/m2 unknown
08:34 46.4 °F 44.6 °F 30 in West 3.1 mph 3.7 mph 96% 0 in 26.00 W/m2 unknown
08:39 46.4 °F 44.6 °F 30 in WSW 3.7 mph 5 mph 96% 0 in 26.00 W/m2 unknown
08:44 46.4 °F 44.6 °F 30 in WSW 3.1 mph 5 mph 96% 0 in 26.00 W/m2 unknown
08:49 46.4 °F 44.6 °F 30 in West 2.5 mph 3.7 mph 96% 0 in 23.00 W/m2 unknown
08:54 46.4 °F 44.6 °F 30 in West 5 mph 6.2 mph 96% 0 in 26.00 W/m2 unknown
08:59 46.4 °F 44.6 °F 30 in WNW 5 mph 6.2 mph 96% 0 in 28.00 W/m2 unknown
09:04 46.4 °F 44.6 °F 30 in West 4.3 mph 6.2 mph 96% 0 in 26.00 W/m2 unknown
09:09 46.4 °F 44.6 °F 30 in WSW 3.1 mph 6.2 mph 96% 0 in 30.00 W/m2 unknown
09:14 46.4 °F 46.4 °F 30 in SW 4.3 mph 5 mph 96% 0 in 33.00 W/m2 unknown
09:19 46.4 °F 46.4 °F 30 in WSW 5 mph 5 mph 96% 0 in 39.00 W/m2 unknown
09:24 46.4 °F 46.4 °F 30 in SW 3.1 mph 5 mph 96% 0 in 40.00 W/m2 unknown
09:29 46.4 °F 46.4 °F 30 in WSW 3.7 mph 5 mph 96% 0 in 44.00 W/m2 unknown
09:34 46.4 °F 44.6 °F 30 in WSW 4.3 mph 5 mph 95% 0 in 46.00 W/m2 unknown
09:39 46.4 °F 44.6 °F 30 in SW 3.1 mph 3.7 mph 95% 0 in 56.00 W/m2 unknown
09:44 46.4 °F 44.6 °F 30 in SW 3.7 mph 5 mph 95% 0 in 63.00 W/m2 unknown
09:49 46.4 °F 46.4 °F 30 in SW 3.1 mph 5 mph 95% 0 in 60.00 W/m2 unknown
09:54 46.4 °F 46.4 °F 30 in WSW 4.3 mph 5 mph 95% 0 in 70.00 W/m2 unknown
09:59 46.4 °F 46.4 °F 30 in WSW 4.3 mph 6.2 mph 95% 0 in 77.00 W/m2 unknown
10:04 46.4 °F 46.4 °F 30 in WSW 4.3 mph 6.2 mph 95% 0 in 91.00 W/m2 unknown
10:09 48.2 °F 46.4 °F 30 in West 4.3 mph 5 mph 95% 0 in 109.00 W/m2 unknown
10:14 48.2 °F 46.4 °F 30 in West 4.3 mph 6.2 mph 95% 0 in 114.00 W/m2 unknown
10:19 48.2 °F 46.4 °F 30 in West 4.3 mph 6.2 mph 95% 0 in 132.00 W/m2 unknown
10:24 48.2 °F 46.4 °F 30 in WSW 3.7 mph 5 mph 95% 0 in 151.00 W/m2 unknown
10:29 48.2 °F 46.4 °F 30 in WSW 3.7 mph 5 mph 94% 0 in 199.00 W/m2 unknown
10:34 48.2 °F 46.4 °F 30 in WSW 4.3 mph 5 mph 94% 0 in 223.00 W/m2 unknown
10:39 48.2 °F 48.2 °F 30 in West 5 mph 5 mph 94% 0 in 236.00 W/m2 unknown
10:44 48.2 °F 46.4 °F 30 in West 3.1 mph 5 mph 93% 0 in 232.00 W/m2 unknown
10:49 50 °F 48.2 °F 30 in West 2.5 mph 3.7 mph 93% 0 in 202.00 W/m2 unknown
10:54 50 °F 48.2 °F 30 in West 2.5 mph 3.7 mph 93% 0 in 232.00 W/m2 unknown
10:59 50 °F 48.2 °F 30 in West 3.1 mph 3.7 mph 93% 0 in 221.00 W/m2 unknown
11:04 50 °F 48.2 °F 30 in SW 3.1 mph 3.7 mph 92% 0 in 220.00 W/m2 unknown
11:09 50 °F 48.2 °F 30 in West 1.9 mph 3.7 mph 92% 0 in 316.00 W/m2 unknown
11:14 50 °F 48.2 °F 30 in WSW 2.5 mph 3.7 mph 92% 0 in 316.00 W/m2 unknown
11:19 50 °F 48.2 °F 30 in SW 2.5 mph 3.7 mph 92% 0 in 246.00 W/m2 unknown
11:24 51.8 °F 48.2 °F 30 in SW 1.2 mph 3.1 mph 91% 0 in 197.00 W/m2 unknown
11:29 51.8 °F 48.2 °F 30 in SSE 1.9 mph 3.7 mph 91% 0 in 192.00 W/m2 unknown
11:34 50 °F 48.2 °F 30 in SE 1.9 mph 3.1 mph 91% 0 in 220.00 W/m2 unknown
11:39 51.8 °F 48.2 °F 30 in ESE 1.9 mph 2.5 mph 92% 0 in 188.00 W/m2 unknown
11:44 51.8 °F 48.2 °F 30 in SW 1.9 mph 3.7 mph 91% 0 in 221.00 W/m2 unknown
11:49 51.8 °F 48.2 °F 30 in WSW 2.5 mph 3.7 mph 91% 0 in 225.00 W/m2 unknown
11:54 51.8 °F 48.2 °F 30 in WSW 2.5 mph 3.7 mph 91% 0 in 193.00 W/m2 unknown
11:59 51.8 °F 48.2 °F 30 in WSW 2.5 mph 3.7 mph 91% 0 in 169.00 W/m2 unknown
12:04 51.8 °F 48.2 °F 30 in SW 1.9 mph 3.7 mph 91% 0 in 190.00 W/m2 unknown
12:09 51.8 °F 48.2 °F 30 in WSW 1.2 mph 3.1 mph 91% 0 in 192.00 W/m2 unknown
12:14 51.8 °F 50 °F 30 in WSW 1.9 mph 2.5 mph 91% 0 in 199.00 W/m2 unknown
12:19 51.8 °F 50 °F 30 in SW 1.9 mph 3.7 mph 91% 0 in 199.00 W/m2 unknown
12:24 51.8 °F 50 °F 30 in SW 1.9 mph 3.7 mph 90% 0 in 195.00 W/m2 unknown
12:29 51.8 °F 50 °F 30 in SW 1.9 mph 3.7 mph 90% 0 in 139.00 W/m2 unknown
12:34 51.8 °F 50 °F 30 in West 1.2 mph 3.7 mph 90% 0 in 132.00 W/m2 unknown
12:39 51.8 °F 50 °F 30 in West 1.2 mph 3.1 mph 90% 0 in 139.00 W/m2 unknown
12:44 51.8 °F 50 °F 30 in SW 1.9 mph 3.7 mph 90% 0 in 130.00 W/m2 unknown
12:49 51.8 °F 50 °F 30 in SW 3.1 mph 3.7 mph 90% 0 in 139.00 W/m2 unknown
12:54 51.8 °F 50 °F 30 in WSW 1.9 mph 3.7 mph 92% 0 in 153.00 W/m2 unknown
12:59 51.8 °F 50 °F 30 in WNW 1.2 mph 3.1 mph 89% 0 in 153.00 W/m2 unknown
13:04 53.6 °F 50 °F 30 in Calm   1.9 mph 90% 0 in 148.00 W/m2 unknown
13:09 53.6 °F 50 °F 30 in NW 1.9 mph 3.7 mph 89% 0 in 195.00 W/m2 unknown
13:14 53.6 °F 50 °F 30 in NW 1.2 mph 3.1 mph 89% 0 in 195.00 W/m2 unknown
13:19 53.6 °F 50 °F 30 in North 1.2 mph 2.5 mph 89% 0 in 199.00 W/m2 unknown
13:24 53.6 °F 50 °F 30 in NW 1.9 mph 3.7 mph 88% 0 in 269.00 W/m2 unknown
13:29 53.6 °F 50 °F 30 in NW 1.9 mph 3.7 mph 88% 0 in 265.00 W/m2 unknown
13:34 53.6 °F 50 °F 30 in NNW 1.2 mph 3.1 mph 87% 0 in 299.00 W/m2 unknown
13:39 53.6 °F 50 °F 30 in NNW 1.9 mph 3.7 mph 88% 0 in 294.00 W/m2 unknown
13:44 53.6 °F 50 °F 30 in North 1.9 mph 3.7 mph 87% 0 in 255.00 W/m2 unknown
13:49 53.6 °F 50 °F 30 in NNW 1.2 mph 3.7 mph 87% 0 in 193.00 W/m2 unknown
13:54 53.6 °F 50 °F 30 in SSW 3.7 mph 5 mph 88% 0 in 202.00 W/m2 unknown
13:59 53.6 °F 50 °F 30 in SSE 1.9 mph 5 mph 88% 0 in 179.00 W/m2 unknown
14:04 53.6 °F 50 °F 30 in South 3.1 mph 3.7 mph 87% 0 in 176.00 W/m2 unknown
14:09 53.6 °F 50 °F 30 in South 3.1 mph 3.7 mph 87% 0 in 139.00 W/m2 unknown
14:14 53.6 °F 50 °F 30 in East 3.1 mph 3.7 mph 87% 0 in 141.00 W/m2 unknown
14:19 53.6 °F 50 °F 30 in ENE 5 mph 6.2 mph 87% 0 in 153.00 W/m2 unknown
14:24 53.6 °F 50 °F 30 in East 5 mph 6.2 mph 87% 0 in 167.00 W/m2 unknown
14:29 53.6 °F 50 °F 30 in East 3.1 mph 6.2 mph 87% 0 in 172.00 W/m2 unknown
14:34 53.6 °F 50 °F 30 in ENE 3.1 mph 5 mph 87% 0 in 174.00 W/m2 unknown
14:39 53.6 °F 50 °F 30 in NE 3.1 mph 5 mph 87% 0 in 169.00 W/m2 unknown
14:44 53.6 °F 50 °F 30 in East 1.9 mph 5 mph 87% 0 in 160.00 W/m2 unknown
14:49 53.6 °F 50 °F 30 in Calm   3.1 mph 87% 0 in 141.00 W/m2 unknown
14:54 55.4 °F 50 °F 30 in ESE 3.7 mph 3.7 mph 86% 0 in 116.00 W/m2 unknown
14:59 55.4 °F 50 °F 30 in ESE 3.7 mph 3.7 mph 86% 0 in 120.00 W/m2 unknown
15:04 53.6 °F 50 °F 30 in ESE 3.1 mph 3.7 mph 86% 0 in 120.00 W/m2 unknown
15:09 53.6 °F 50 °F 30 in ESE 3.1 mph 5 mph 86% 0 in 98.00 W/m2 unknown
15:14 53.6 °F 50 °F 30 in ESE 2.5 mph 5 mph 86% 0 in 97.00 W/m2 unknown
15:19 53.6 °F 50 °F 30 in ESE 3.7 mph 5 mph 86% 0 in 97.00 W/m2 unknown
15:24 53.6 °F 50 °F 30 in SE 3.1 mph 5 mph 86% 0 in 91.00 W/m2 unknown
15:29 53.6 °F 50 °F 30 in South 2.5 mph 3.7 mph 86% 0 in 72.00 W/m2 unknown
15:34 53.6 °F 50 °F 30 in SSE 3.7 mph 6.2 mph 88% 0 in 65.00 W/m2 unknown
15:39 53.6 °F 50 °F 30 in South 4.3 mph 6.2 mph 88% 0 in 74.00 W/m2 unknown
15:44 53.6 °F 50 °F 30 in South 5.6 mph 8.1 mph 88% 0 in 76.00 W/m2 unknown
15:49 53.6 °F 50 °F 30 in SSW 5.6 mph 8.1 mph 88% 0 in 62.00 W/m2 unknown
15:54 53.6 °F 50 °F 30 in South 3.7 mph 6.2 mph 89% 0 in 56.00 W/m2 unknown
15:59 53.6 °F 50 °F 30 in South 3.7 mph 5 mph 89% 0 in 56.00 W/m2 unknown
16:04 53.6 °F 50 °F 30 in SSE 3.1 mph 5 mph 89% 0 in 44.00 W/m2 unknown
16:09 53.6 °F 50 °F 30 in South 5 mph 6.8 mph 89% 0 in 44.00 W/m2 unknown
16:14 53.6 °F 50 °F 30 in South 5 mph 6.8 mph 89% 0 in 47.00 W/m2 unknown
16:19 53.6 °F 50 °F 30 in South 3.1 mph 6.8 mph 89% 0 in 51.00 W/m2 unknown
16:24 53.6 °F 50 °F 30 in SSW 3.7 mph 5 mph 90% 0 in 53.00 W/m2 unknown
16:29 53.6 °F 50 °F 30 in SSW 4.3 mph 5 mph 90% 0 in 58.00 W/m2 unknown
16:34 53.6 °F 50 °F 30 in SSW 3.1 mph 5 mph 90% 0 in 53.00 W/m2 unknown
16:39 51.8 °F 50 °F 30 in South 3.7 mph 5 mph 91% 0 in 44.00 W/m2 unknown
16:44 51.8 °F 50 °F 30 in South 3.7 mph 6.2 mph 91% 0 in 35.00 W/m2 unknown
16:49 51.8 °F 50 °F 30 in South 5.6 mph 6.2 mph 92% 0 in 30.00 W/m2 unknown
16:54 51.8 °F 50 °F 30 in SSE 3.7 mph 6.2 mph 92% 0 in 26.00 W/m2 unknown
16:59 51.8 °F 50 °F 30 in SSE 3.1 mph 6.2 mph 92% 0 in 26.00 W/m2 unknown
17:04 51.8 °F 50 °F 30 in SSE 2.5 mph 6.2 mph 92% 0 in 23.00 W/m2 unknown
17:09 51.8 °F 50 °F 30 in SSE 1.9 mph 3.7 mph 92% 0 in 21.00 W/m2 unknown
17:14 51.8 °F 50 °F 30 in South 1.2 mph 2.5 mph 92% 0 in 21.00 W/m2 unknown
17:19 51.8 °F 50 °F 30 in South 1.2 mph 2.5 mph 92% 0 in 19.00 W/m2 unknown
17:24 51.8 °F 50 °F 30 in SE 1.2 mph 2.5 mph 92% 0 in 16.00 W/m2 unknown
17:29 51.8 °F 50 °F 30 in SE 1.2 mph 2.5 mph 92% 0 in 14.00 W/m2 unknown
17:34 51.8 °F 50 °F 30 in SE 1.2 mph 1.9 mph 92% 0 in 12.00 W/m2 unknown
17:39 51.8 °F 50 °F 30 in SSE 0.6 mph 1.9 mph 92% 0 in 7.00 W/m2 unknown
17:44 51.8 °F 50 °F 30 in SSE 1.9 mph 3.7 mph 93% 0 in 0.00 W/m2 unknown
17:49 51.8 °F 50 °F 30 in SSE 1.9 mph 3.7 mph 93% 0 in 0.00 W/m2 unknown
17:54 51.8 °F 50 °F 30 in SE 2.5 mph 3.7 mph 93% 0 in 0.00 W/m2 unknown
17:59 51.8 °F 50 °F 30 in SE 1.9 mph 3.7 mph 93% 0 in 0.00 W/m2 unknown
18:04 51.8 °F 48.2 °F 30 in SE 1.9 mph 3.7 mph 93% 0 in 0.00 W/m2 unknown
18:09 51.8 °F 48.2 °F 30 in ESE 1.9 mph 3.7 mph 93% 0 in 0.00 W/m2 unknown
18:14 51.8 °F 48.2 °F 30 in ESE 2.5 mph 3.7 mph 93% 0 in 0.00 W/m2 unknown
18:19 51.8 °F 48.2 °F 30 in ESE 3.1 mph 3.7 mph 93% 0 in 0.00 W/m2 unknown
18:24 51.8 °F 48.2 °F 30 in ESE 1.9 mph 3.7 mph 93% 0 in 0.00 W/m2 unknown
18:29 50 °F 48.2 °F 30 in ESE 1.2 mph 2.5 mph 93% 0 in 0.00 W/m2 unknown
18:34 50 °F 48.2 °F 30 in ESE 1.9 mph 2.5 mph 93% 0 in 0.00 W/m2 unknown
18:39 50 °F 48.2 °F 30 in East 1.9 mph 3.7 mph 93% 0 in 0.00 W/m2 unknown
18:44 50 °F 48.2 °F 30 in ENE 1.9 mph 3.7 mph 93% 0 in 0.00 W/m2 unknown
18:49 50 °F 48.2 °F 30 in ESE 1.9 mph 3.1 mph 93% 0 in 0.00 W/m2 unknown
18:54 50 °F 48.2 °F 30 in East 1.9 mph 3.7 mph 93% 0 in 0.00 W/m2 unknown
18:59 50 °F 48.2 °F 30 in East 1.9 mph 3.1 mph 93% 0 in 0.00 W/m2 unknown
19:04 50 °F 48.2 °F 30 in East 1.9 mph 2.5 mph 93% 0 in 0.00 W/m2 unknown
19:09 50 °F 48.2 °F 30 in East 1.2 mph 2.5 mph 93% 0 in 0.00 W/m2 unknown
19:14 50 °F 48.2 °F 30 in East 1.9 mph 3.7 mph 93% 0 in 0.00 W/m2 unknown
19:19 50 °F 48.2 °F 30 in ESE 1.9 mph 3.7 mph 93% 0 in 0.00 W/m2 unknown
19:24 50 °F 48.2 °F 30 in ESE 2.5 mph 3.7 mph 93% 0 in 0.00 W/m2 unknown
19:29 50 °F 48.2 °F 30 in ESE 3.1 mph 3.7 mph 93% 0 in 0.00 W/m2 unknown
19:34 50 °F 48.2 °F 30 in ESE 1.9 mph 3.7 mph 93% 0 in 0.00 W/m2 unknown
19:39 50 °F 48.2 °F 30 in Calm   3.1 mph 93% 0 in 0.00 W/m2 unknown
19:44 50 °F 48.2 °F 30 in SE 1.9 mph 2.5 mph 93% 0 in 0.00 W/m2 unknown
19:49 50 °F 48.2 °F 30 in ESE 3.1 mph 3.7 mph 93% 0 in 0.00 W/m2 unknown
19:54 50 °F 48.2 °F 30 in SE 3.1 mph 3.7 mph 93% 0 in 0.00 W/m2 unknown
19:59 50 °F 48.2 °F 30 in SE 3.1 mph 3.7 mph 93% 0 in 0.00 W/m2 unknown
20:04 50 °F 48.2 °F 30 in ESE 3.1 mph 3.7 mph 93% 0 in 0.00 W/m2 unknown
20:09 50 °F 48.2 °F 30 in ESE 3.1 mph 3.7 mph 93% 0 in 0.00 W/m2 unknown
20:14 50 °F 48.2 °F 30.1 in East 2.5 mph 3.7 mph 93% 0 in 0.00 W/m2 unknown
20:19 50 °F 48.2 °F 30.1 in East 3.1 mph 3.7 mph 93% 0 in 0.00 W/m2 unknown
20:24 50 °F 48.2 °F 30.1 in East 3.1 mph 3.7 mph 93% 0 in 0.00 W/m2 unknown
20:29 50 °F 48.2 °F 30.1 in NE 1.9 mph 3.7 mph 93% 0 in 0.00 W/m2 unknown
20:34 50 °F 48.2 °F 30.1 in NE 1.2 mph 3.1 mph 93% 0 in 0.00 W/m2 unknown
20:39 50 °F 48.2 °F 30.1 in East 2.5 mph 3.7 mph 92% 0 in 0.00 W/m2 unknown
20:44 50 °F 48.2 °F 30.1 in East 1.9 mph 3.1 mph 92% 0 in 0.00 W/m2 unknown
20:49 50 °F 48.2 °F 30.1 in ENE 1.2 mph 2.5 mph 92% 0 in 0.00 W/m2 unknown
20:54 50 °F 48.2 °F 30.1 in East 1.9 mph 2.5 mph 92% 0 in 0.00 W/m2 unknown
20:59 50 °F 48.2 °F 30.1 in East 1.9 mph 2.5 mph 92% 0 in 0.00 W/m2 unknown
21:04 50 °F 48.2 °F 30.1 in ENE 1.9 mph 2.5 mph 92% 0 in 0.00 W/m2 unknown
21:09 50 °F 48.2 °F 30.1 in NE 1.9 mph 3.7 mph 93% 0 in 0.00 W/m2 unknown
21:14 50 °F 48.2 °F 30.1 in ENE 1.9 mph 3.7 mph 93% 0 in 0.00 W/m2 unknown
21:19 50 °F 48.2 °F 30.1 in ENE 2.5 mph 3.7 mph 93% 0 in 0.00 W/m2 unknown
21:24 50 °F 48.2 °F 30.1 in NE 2.5 mph 3.7 mph 92% 0 in 0.00 W/m2 unknown
21:29 50 °F 48.2 °F 30.1 in NE 2.5 mph 3.7 mph 92% 0 in 0.00 W/m2 unknown
21:34 50 °F 48.2 °F 30.1 in ENE 3.1 mph 3.7 mph 92% 0 in 0.00 W/m2 unknown
21:39 50 °F 48.2 °F 30.1 in ENE 2.5 mph 3.7 mph 92% 0 in 0.00 W/m2 unknown
21:44 50 °F 48.2 °F 30.1 in ENE 2.5 mph 3.7 mph 92% 0 in 0.00 W/m2 unknown
21:49 50 °F 48.2 °F 30.1 in ENE 2.5 mph 3.7 mph 92% 0 in 0.00 W/m2 unknown
21:54 50 °F 48.2 °F 30.1 in ENE 2.5 mph 3.7 mph 92% 0 in 0.00 W/m2 unknown
21:59 50 °F 48.2 °F 30.1 in ENE 1.9 mph 3.7 mph 92% 0 in 0.00 W/m2 unknown
22:04 50 °F 48.2 °F 30.1 in ENE 2.5 mph 3.7 mph 92% 0 in 0.00 W/m2 unknown
22:09 50 °F 48.2 °F 30.1 in NE 2.5 mph 3.7 mph 92% 0 in 0.00 W/m2 unknown
22:14 50 °F 48.2 °F 30.1 in NE 1.9 mph 3.7 mph 92% 0 in 0.00 W/m2 unknown
22:19 50 °F 48.2 °F 30.1 in NE 1.2 mph 3.1 mph 92% 0 in 0.00 W/m2 unknown
22:24 50 °F 48.2 °F 30.1 in Calm   1.2 mph 92% 0 in 0.00 W/m2 unknown
22:29 50 °F 48.2 °F 30.1 in ESE 2.5 mph 3.7 mph 92% 0 in 0.00 W/m2 unknown
22:34 50 °F 48.2 °F 30.1 in ESE 2.5 mph 3.7 mph 92% 0 in 0.00 W/m2 unknown
22:39 50 °F 48.2 °F 30.1 in ESE 1.9 mph 3.7 mph 92% 0 in 0.00 W/m2 unknown
22:44 50 °F 48.2 °F 30.1 in ESE 1.2 mph 3.1 mph 92% 0 in 0.00 W/m2 unknown
22:49 50 °F 48.2 °F 30.1 in Calm   1.9 mph 93% 0 in 0.00 W/m2 unknown
22:54 50 °F 48.2 °F 30.1 in ENE 1.9 mph 2.5 mph 93% 0 in 0.00 W/m2 unknown
22:59 50 °F 48.2 °F 30.1 in East 1.9 mph 3.7 mph 93% 0 in 0.00 W/m2 unknown
23:04 50 °F 48.2 °F 30.1 in ESE 2.5 mph 3.7 mph 93% 0 in 0.00 W/m2 unknown
23:09 50 °F 48.2 °F 30.1 in ESE 2.5 mph 3.7 mph 93% 0 in 0.00 W/m2 unknown
23:14 50 °F 48.2 °F 30.1 in ESE 1.9 mph 3.1 mph 93% 0 in 0.00 W/m2 unknown
23:19 50 °F 48.2 °F 30.1 in Calm   1.9 mph 92% 0 in 0.00 W/m2 unknown
23:24 50 °F 48.2 °F 30.1 in Calm     93% 0 in 0.00 W/m2 unknown
23:29 50 °F 48.2 °F 30.1 in Calm     93% 0 in 0.00 W/m2 unknown
23:34 50 °F 48.2 °F 30.1 in ENE 1.2 mph 2.5 mph 93% 0 in 0.00 W/m2 unknown
23:39 50 °F 48.2 °F 30.1 in ENE 1.2 mph 1.9 mph 93% 0 in 0.00 W/m2 unknown
23:44 50 °F 48.2 °F 30.1 in Calm   1.2 mph 93% 0 in 0.00 W/m2 unknown
23:49 48.2 °F 46.4 °F 30.1 in Calm     93% 0 in 0.00 W/m2 unknown
23:54 48.2 °F 46.4 °F 30.1 in Calm     94% 0 in 0.00 W/m2 unknown
23:59 48.2 °F 46.4 °F 30.1 in Calm     94% 0 in 0.00 W/m2 unknown
Stazione Meteorologica MeteoMincio Rivalta s/M (MN)
Con i complimenti di Weather Underground - 4 mb



METEO PILLOLE
La più ampia escursione termica nell'arco di 24 ore negli USA
Browning - Montana
Tra il 23 e il 24 gennaio 1916 la temperatura scese da +6.6°c a -48.9°C.
Share

Non seguire questo link o sarai bannato dal sito!